Regional Weather Roundup
Issued by NWS

Home | Current Version | Previous Version | Graphics & Text | Print | Product List | Glossary On
Versions: 1 2 3 4 5 6 7 8 9 10 11 12 13 14 15 16 17 18 19 20 21 22 23 24 25 26 27
000
ASUS45 KSLC 241510
RWRUT

UTAH REGIONAL WEATHER ROUNDUP
NATIONAL WEATHER SERVICE SALT LAKE CITY UT
900 AM MDT MON JUL 24 2017

UTZ001>011-023>025-241600-

NORTHERN UTAH

CITY           SKY/WX    TMP DP  RH WIND       PRES   REMARKS
BRIGHAM CITY   SUNNY     76  47  36 CALM      30.04S
HILL AFB       PTSUNNY   72  46  39 E15       30.07R
LOGAN          SUNNY     72  49  44 N5        30.05S
OGDEN          MOSUNNY   76  48  37 S6        30.04R
SALT LAKE CITY PTSUNNY   81  52  36 SE7       30.02S
TOOELE VALLEY  PTSUNNY   77  48  36 CALM      30.03S
WENDOVER       SUNNY     81  43  26 CALM      30.02S
HEBER CITY     MOSUNNY   66  48  52 CALM      30.16S
WEST JORDAN    PTSUNNY   79  58  48 S8        30.06S

$$

UTZ011>015-024>027-241600-

CENTRAL/NORTHEAST UTAH

CITY           SKY/WX    TMP DP  RH WIND       PRES   REMARKS
PROVO AIRPORT  MOSUNNY   75  48  38 CALM      30.08S
MOAB/CANYONLAN SUNNY     83  53  35 SE16      30.08R
DELTA          MOSUNNY   75  50  41 CALM      30.08S
PRICE          SUNNY     77  47  34 S5        30.19R
RICHFIELD      SUNNY     72  50  46 CALM      30.16R
ROOSEVELT      SUNNY     75  43  31 CALM      30.16R
VERNAL         SUNNY     81  45  28 VRB3      30.14R

$$

UTZ013>016-019>022-027-241600-

SOUTHERN UTAH

CITY           SKY/WX    TMP DP  RH WIND       PRES   REMARKS
BRYCE CANYON   MOSUNNY   64  49  57 S5        30.33R
CEDAR CITY     MOSUNNY   76  49  38 CALM      30.15R
MILFORD        PTSUNNY   75  49  39 SW12      30.09R
ST GEORGE      MOSUNNY   84  56  38 SE7       29.99R
HANKSVILLE     MOSUNNY   84  50  30 S14G23    30.09S
KANAB          MOSUNNY   72  57  60 CALM      30.19R
BLANDING       CLOUDY    70  56  60 SW7       30.32S

$$

REGIONAL REPORTS     COLORADO/ARIZONA

CITY           SKY/WX    TMP DP  RH WIND       PRES   REMARKS
CRAIG, CO      CLOUDY    67  47  48 CALM      30.23R
GRAND JUNCTION SUNNY     78  49  35 SE20      30.13S
RIFLE, CO      SUNNY     71  48  43 VRB3      30.21R
MONTROSE, CO   SUNNY     73  50  44 CALM      30.22F
CORTEZ, CO     CLOUDY    69  59  70 SE5       30.25R
COLORADO CITY    N/A     72  63  73 CALM      30.17R
PAGE, AZ       CLOUDY    77  60  55 S6        30.11R
GRAND CANYON   CLOUDY    65  59  81 E3        30.29S
KINGMAN, AZ    CLOUDY    75  65  70 SE15      30.05R
FLAGSTAFF, AZ  LGT RAIN  59  58  96 S5        30.33R

$$

REGIONAL REPORTS    NEVADA/IDAHO/WYOMING

CITY           SKY/WX    TMP DP  RH WIND       PRES   REMARKS
LAS VEGAS, NV  PTSUNNY   88  62  41 VRB5      29.92R
ELY, NY          N/A    N/A N/A N/A MISG      30.21S
ELKO, NV       MOSUNNY   73  46  38 NE5       30.10S
POCATELLO, ID  MOSUNNY   69  47  45 NE3       30.05R
BURLEY, ID     MOSUNNY   67  52  58 CALM      30.00R
FORT BRIDGER,  CLOUDY    68  39  34 W5        30.27R
EVANSTON, WY   CLOUDY    66  44  45 SW6       30.25S
ROCK SPRINGS,  CLOUDY    70  37  29 SW8       30.24R
KEMMERER, WY     N/A     66  37  34 CALM      30.28R

$$




USA.gov is the U.S. government's official web portal to all federal, state and local government web resources and services.